Location: *
(57.8420°S, 159.8600°W)
Time: 12:56:02
(UTC+00:00)

ATLAS 3B R/B - Pass Details

Date: 18 May 2021
Orbit: 1006 x 1189 km, 63.8° (Epoch: 17 June)

Event Time Altitude Azimuth Distance (km) Brightness Sun altitude
Rises 07:08:09 0° 276° (W) 4,075 6.5 -36.4°
Reaches altitude 10° 07:10:59 10° 272° (W) 3,099 5.7 -36.7°
Enters shadow 07:17:25 55° 221° (SW) 1,372 3.3 -37.5°
